EJU474D LFBH-LFLL

Flight info

Callsign EJU474D
Flight time 0h 52m
Altitude 34000
Route MAREN A25 ESUZE DCT CNA DCT LMG DCT BEBIX DCT VALKU DCT LABAL DCT LESPI
Aircraft A20N/M-SDE2E3FGHIJ1RWXYZ/LB1G1

Departure

Time 2026-05-06 11:38
Airport La Rochelle Île de Ré Airport (LFBH)

Arrival

Time 2026-05-06 12:31
Airport Lyon Saint-Exupéry Airport (LFLL)
Time Latitude Longitude Altitude Speed Heading
2026-05-06 11:05 46.17643 -1.19296 69 ft 0 kts 140°
2026-05-06 11:26 46.17644 -1.19297 77 ft 1 kts 140°
2026-05-06 11:26 46.17651 -1.19305 66 ft 2 kts 140°
2026-05-06 11:27 46.17661 -1.19318 68 ft 2 kts 140°
2026-05-06 11:27 46.17672 -1.19329 70 ft 2 kts 179°
2026-05-06 11:27 46.17686 -1.19325 66 ft 2 kts 229°
2026-05-06 11:27 46.17692 -1.19308 69 ft 2 kts 279°
2026-05-06 11:28 46.17688 -1.19289 66 ft 2 kts 291°
2026-05-06 11:28 46.17683 -1.19271 72 ft 2 kts 282°
2026-05-06 11:28 46.17683 -1.19270 72 ft 0 kts 282°
2026-05-06 11:29 46.17686 -1.19329 66 ft 8 kts 272°
2026-05-06 11:30 46.17688 -1.19407 77 ft 8 kts 272°
2026-05-06 11:30 46.17691 -1.19479 77 ft 7 kts 274°
2026-05-06 11:30 46.17693 -1.19497 74 ft 0 kts 289°
2026-05-06 11:31 46.17695 -1.19503 72 ft 6 kts 297°
2026-05-06 11:31 46.17753 -1.19530 71 ft 9 kts 358°
2026-05-06 11:31 46.17757 -1.19530 74 ft 0 kts 358°
2026-05-06 11:34 46.17762 -1.19531 72 ft 2 kts 358°
2026-05-06 11:34 46.17772 -1.19531 72 ft 0 kts 358°
2026-05-06 11:34 46.17777 -1.19531 73 ft 2 kts 358°
2026-05-06 11:34 46.17856 -1.19528 75 ft 14 kts
2026-05-06 11:35 46.17924 -1.19615 77 ft 16 kts 274°
2026-05-06 11:35 46.17924 -1.19785 77 ft 18 kts 271°
2026-05-06 11:35 46.17928 -1.19971 69 ft 19 kts 272°
2026-05-06 11:35 46.17938 -1.20179 75 ft 22 kts 275°
2026-05-06 11:36 46.17945 -1.20415 66 ft 25 kts 272°
2026-05-06 11:36 46.17952 -1.20673 69 ft 27 kts 273°
2026-05-06 11:36 46.17949 -1.20868 61 ft 0 kts 231°
2026-05-06 11:36 46.17937 -1.20924 67 ft 7 kts 290°
2026-05-06 11:37 46.17949 -1.20927 60 ft 2 kts 25°
2026-05-06 11:37 46.17967 -1.20900 64 ft 7 kts 75°
2026-05-06 11:37 46.17958 -1.20846 67 ft 4 kts 96°
2026-05-06 11:37 46.17957 -1.20824 69 ft 12 kts 92°
2026-05-06 11:38 46.17946 -1.20334 67 ft 85 kts 92°
2026-05-06 11:38 46.17910 -1.19157 77 ft 144 kts 91°
2026-05-06 11:38 46.17860 -1.17663 569 ft 148 kts 88°
2026-05-06 11:38 46.17801 -1.16186 1253 ft 146 kts 88°
2026-05-06 11:39 46.17744 -1.14715 1909 ft 150 kts 87°
2026-05-06 11:39 46.17438 -1.13164 2420 ft 175 kts 118°
2026-05-06 11:39 46.16482 -1.11967 2963 ft 200 kts 155°
2026-05-06 11:39 46.15115 -1.11571 3503 ft 217 kts 174°
2026-05-06 11:40 46.13575 -1.11399 3967 ft 240 kts 176°
2026-05-06 11:40 46.11819 -1.11243 4455 ft 264 kts 176°
2026-05-06 11:40 46.09901 -1.11044 5165 ft 279 kts 175°
2026-05-06 11:40 46.07965 -1.10811 6198 ft 280 kts 175°
2026-05-06 11:41 46.06042 -1.10559 7298 ft 277 kts 175°
2026-05-06 11:41 46.04121 -1.10300 8142 ft 286 kts 175°
2026-05-06 11:41 46.02122 -1.10029 9141 ft 288 kts 175°
2026-05-06 11:41 46.00115 -1.09757 10115 ft 290 kts 175°
2026-05-06 11:42 45.98073 -1.09481 10609 ft 310 kts 175°
2026-05-06 11:42 45.95839 -1.09180 10906 ft 334 kts 175°
2026-05-06 11:42 45.93482 -1.08864 11548 ft 344 kts 175°
2026-05-06 11:42 45.91086 -1.08541 12326 ft 349 kts 175°
2026-05-06 11:43 45.88670 -1.08217 13209 ft 352 kts 175°
2026-05-06 11:43 45.86224 -1.07890 14000 ft 357 kts 175°
2026-05-06 11:43 45.83736 -1.07558 14724 ft 361 kts 175°
2026-05-06 11:44 45.78665 -1.06882 16026 ft 373 kts 175°
2026-05-06 11:44 45.76089 -1.06538 16751 ft 377 kts 175°
2026-05-06 11:44 45.73443 -1.06119 17252 ft 386 kts 170°
2026-05-06 11:44 45.70832 -1.05244 18115 ft 384 kts 165°
2026-05-06 11:45 45.68238 -1.04260 18713 ft 391 kts 165°
2026-05-06 11:45 45.65589 -1.03265 19292 ft 394 kts 165°
2026-05-06 11:45 45.62920 -1.02266 19914 ft 398 kts 165°
2026-05-06 11:45 45.60225 -1.01260 20490 ft 403 kts 165°
2026-05-06 11:46 45.57494 -1.00240 21087 ft 408 kts 165°
2026-05-06 11:46 45.54724 -0.99206 21606 ft 414 kts 165°
2026-05-06 11:46 45.51931 -0.98165 22177 ft 418 kts 165°
2026-05-06 11:46 45.49108 -0.97067 22699 ft 422 kts 160°
2026-05-06 11:47 45.46477 -0.95218 23233 ft 424 kts 144°
2026-05-06 11:47 45.44277 -0.92466 23708 ft 424 kts 128°
2026-05-06 11:47 45.42649 -0.88988 24188 ft 422 kts 112°
2026-05-06 11:47 45.41715 -0.85066 24651 ft 418 kts 97°
2026-05-06 11:48 45.41527 -0.80976 25120 ft 413 kts 82°
2026-05-06 11:48 45.42086 -0.76994 25593 ft 409 kts 67°
2026-05-06 11:48 45.43345 -0.73390 25987 ft 407 kts 52°
2026-05-06 11:48 45.45144 -0.70299 26453 ft 406 kts 44°
2026-05-06 11:49 45.47068 -0.67352 26926 ft 407 kts 45°
2026-05-06 11:49 45.48940 -0.64293 27393 ft 410 kts 47°
2026-05-06 11:49 45.50724 -0.61116 27901 ft 414 kts 49°
2026-05-06 11:49 45.52466 -0.57823 28335 ft 416 kts 50°
2026-05-06 11:50 45.54179 -0.54489 28752 ft 418 kts 50°
2026-05-06 11:50 45.55888 -0.51123 29148 ft 420 kts 50°
2026-05-06 11:50 45.57586 -0.47766 29522 ft 422 kts 50°
2026-05-06 11:50 45.59302 -0.44369 29968 ft 422 kts 50°
2026-05-06 11:51 45.61026 -0.40958 30230 ft 426 kts 50°
2026-05-06 11:51 45.62767 -0.37513 30458 ft 430 kts 51°
2026-05-06 11:51 45.64433 -0.33926 30702 ft 436 kts 57°
2026-05-06 11:51 45.65738 -0.29971 30954 ft 443 kts 66°
2026-05-06 11:52 45.66622 -0.25720 31256 ft 449 kts 75°
2026-05-06 11:52 45.67164 -0.21319 31588 ft 451 kts 77°
2026-05-06 11:52 45.67667 -0.17163 31907 ft 452 kts 77°
2026-05-06 11:52 45.68211 -0.12727 32234 ft 453 kts 77°
2026-05-06 11:53 45.68750 -0.08318 32551 ft 454 kts 78°
2026-05-06 11:53 45.69295 -0.03826 32881 ft 455 kts 78°
2026-05-06 11:53 45.69834 0.00632 33203 ft 456 kts 79°
2026-05-06 11:53 45.70373 0.05105 33498 ft 457 kts 79°
2026-05-06 11:54 45.70911 0.09595 33803 ft 458 kts 79°
2026-05-06 11:54 45.71445 0.14083 33914 ft 458 kts 79°
2026-05-06 11:54 45.72502 0.23007 33910 ft 456 kts 79°
2026-05-06 11:55 45.73559 0.31993 33903 ft 457 kts 79°
2026-05-06 11:55 45.74607 0.40960 33911 ft 458 kts 80°
2026-05-06 11:56 45.75657 0.50002 33911 ft 461 kts 80°
2026-05-06 11:56 45.76696 0.59030 33910 ft 459 kts 80°
2026-05-06 11:57 45.77728 0.68057 33908 ft 458 kts 80°
2026-05-06 11:57 45.78747 0.77045 33910 ft 458 kts 80°
2026-05-06 11:58 45.79744 0.85882 33910 ft 461 kts 81°
2026-05-06 11:58 45.80756 0.94944 33910 ft 461 kts 81°
2026-05-06 11:59 45.82301 1.03855 33912 ft 461 kts 69°
2026-05-06 11:59 45.85043 1.12156 33912 ft 461 kts 62°
2026-05-06 12:00 45.87968 1.20347 33913 ft 461 kts 63°
2026-05-06 12:00 45.90895 1.28583 33910 ft 462 kts 63°
2026-05-06 12:01 45.93656 1.36897 33910 ft 461 kts 70°
2026-05-06 12:01 45.95127 1.45862 33912 ft 462 kts 84°
2026-05-06 12:02 45.95512 1.55075 33914 ft 462 kts 86°
2026-05-06 12:02 45.95885 1.64309 33910 ft 467 kts 87°
2026-05-06 12:03 45.96240 1.73479 33912 ft 462 kts 87°
2026-05-06 12:03 45.96586 1.82697 33910 ft 463 kts 88°
2026-05-06 12:04 45.96923 1.91936 33909 ft 461 kts 88°
2026-05-06 12:04 45.97254 2.01160 33906 ft 463 kts 88°
2026-05-06 12:05 45.97578 2.10421 33907 ft 465 kts 88°
2026-05-06 12:05 45.97894 2.19708 33907 ft 464 kts 88°
2026-05-06 12:06 45.98202 2.28944 33903 ft 464 kts 88°
2026-05-06 12:06 45.98503 2.38196 33902 ft 465 kts 89°
2026-05-06 12:07 45.98797 2.47459 33897 ft 463 kts 89°
2026-05-06 12:07 45.99083 2.56722 33901 ft 463 kts 89°
2026-05-06 12:08 45.99318 2.64496 33898 ft 464 kts 89°
2026-05-06 12:08 45.99591 2.73770 33897 ft 465 kts 89°
2026-05-06 12:09 45.99859 2.83033 33901 ft 465 kts 89°
2026-05-06 12:09 46.00073 2.87660 33748 ft 463 kts 87°
2026-05-06 12:09 46.00350 2.92272 33196 ft 462 kts 86°
2026-05-06 12:10 46.00636 2.96875 32489 ft 461 kts 86°
2026-05-06 12:10 46.00912 3.01467 31718 ft 461 kts 87°
2026-05-06 12:10 46.01175 3.06055 30929 ft 460 kts 87°
2026-05-06 12:10 46.01430 3.10647 30119 ft 459 kts 87°
2026-05-06 12:11 46.01679 3.15215 29188 ft 457 kts 87°
2026-05-06 12:11 46.01923 3.19752 28478 ft 452 kts 87°
2026-05-06 12:11 46.02160 3.24170 27932 ft 445 kts 87°
2026-05-06 12:11 46.02394 3.28593 27345 ft 439 kts 86°
2026-05-06 12:12 46.02622 3.32922 26790 ft 432 kts 87°
2026-05-06 12:12 46.02996 3.37244 26211 ft 428 kts 80°
2026-05-06 12:12 46.03605 3.41408 25648 ft 423 kts 79°
2026-05-06 12:12 46.04200 3.45472 25091 ft 418 kts 79°
2026-05-06 12:13 46.04799 3.49604 24525 ft 414 kts 79°
2026-05-06 12:13 46.05372 3.53585 23975 ft 410 kts 79°
2026-05-06 12:13 46.05945 3.57585 23369 ft 406 kts 79°
2026-05-06 12:13 46.06511 3.61542 22822 ft 400 kts 79°
2026-05-06 12:14 46.07067 3.65426 22286 ft 393 kts 79°
2026-05-06 12:14 46.07613 3.69255 21757 ft 388 kts 79°
2026-05-06 12:14 46.08152 3.73042 21231 ft 383 kts 79°
2026-05-06 12:14 46.08680 3.76775 20722 ft 379 kts 79°
2026-05-06 12:15 46.09204 3.80480 20205 ft 375 kts 79°
2026-05-06 12:15 46.09717 3.84109 19702 ft 372 kts 80°
2026-05-06 12:15 46.10233 3.87782 19191 ft 369 kts 80°
2026-05-06 12:15 46.10738 3.91396 18687 ft 367 kts 81°
2026-05-06 12:16 46.10970 3.95038 18182 ft 363 kts 92°
2026-05-06 12:16 46.10717 3.98631 17649 ft 359 kts 103°
2026-05-06 12:16 46.10059 4.02060 17172 ft 354 kts 109°
2026-05-06 12:16 46.09352 4.05436 16685 ft 351 kts 109°
2026-05-06 12:17 46.08659 4.08788 16197 ft 348 kts 108°
2026-05-06 12:17 46.08004 4.11971 15749 ft 345 kts 108°
2026-05-06 12:17 46.07321 4.15274 15281 ft 343 kts 108°
2026-05-06 12:17 46.06636 4.18579 14809 ft 352 kts 108°
2026-05-06 12:18 46.05910 4.22060 14308 ft 372 kts 108°
2026-05-06 12:18 46.05160 4.25653 13798 ft 379 kts 108°
2026-05-06 12:18 46.04397 4.29303 13244 ft 379 kts 107°
2026-05-06 12:18 46.03649 4.32888 12737 ft 375 kts 107°
2026-05-06 12:19 46.02895 4.36490 12207 ft 372 kts 107°
2026-05-06 12:19 46.02154 4.40037 11766 ft 367 kts 108°
2026-05-06 12:19 46.01422 4.43527 11271 ft 363 kts 108°
2026-05-06 12:19 46.00696 4.46977 10785 ft 358 kts 108°
2026-05-06 12:20 45.99856 4.50303 10434 ft 348 kts 116°
2026-05-06 12:20 45.98716 4.53286 10299 ft 333 kts 123°
2026-05-06 12:20 45.97517 4.56039 10151 ft 319 kts 123°
2026-05-06 12:20 45.96415 4.58741 10033 ft 307 kts 114°
2026-05-06 12:21 45.95964 4.61684 9718 ft 302 kts 90°
2026-05-06 12:21 45.96317 4.64628 9308 ft 298 kts 75°
2026-05-06 12:21 45.96874 4.67488 8942 ft 296 kts 73°
2026-05-06 12:21 45.97441 4.70329 8588 ft 295 kts 74°
2026-05-06 12:22 45.97996 4.73173 8218 ft 295 kts 74°
2026-05-06 12:22 45.98537 4.76009 7861 ft 295 kts 75°
2026-05-06 12:22 45.99070 4.78857 7486 ft 294 kts 75°
2026-05-06 12:22 45.99593 4.81701 7114 ft 293 kts 75°
2026-05-06 12:23 46.00092 4.84424 6766 ft 293 kts 75°
2026-05-06 12:23 46.00437 4.87404 6445 ft 292 kts 87°
2026-05-06 12:23 46.00364 4.90258 6376 ft 282 kts 96°
2026-05-06 12:23 46.00188 4.93043 6304 ft 275 kts 95°
2026-05-06 12:24 46.00044 4.95753 6223 ft 268 kts 95°
2026-05-06 12:24 45.99889 4.98366 6091 ft 255 kts 95°
2026-05-06 12:24 45.99744 5.00861 5803 ft 248 kts 95°
2026-05-06 12:24 45.99552 5.03261 5582 ft 233 kts 108°
2026-05-06 12:25 45.98788 5.05156 5362 ft 212 kts 138°
2026-05-06 12:25 45.97576 5.06162 5039 ft 196 kts 168°
2026-05-06 12:25 45.96275 5.06439 4909 ft 189 kts 179°
2026-05-06 12:25 45.94934 5.06564 4832 ft 192 kts 179°
2026-05-06 12:26 45.93607 5.06726 4696 ft 192 kts 179°
2026-05-06 12:26 45.92280 5.06889 4483 ft 191 kts 178°
2026-05-06 12:26 45.90986 5.07048 4251 ft 184 kts 179°
2026-05-06 12:26 45.89728 5.07203 4024 ft 178 kts 179°
2026-05-06 12:27 45.88510 5.07352 3798 ft 174 kts 179°
2026-05-06 12:27 45.87321 5.07497 3561 ft 169 kts 179°
2026-05-06 12:27 45.86165 5.07638 3342 ft 165 kts 178°
2026-05-06 12:27 45.85027 5.07777 3123 ft 164 kts 176°
2026-05-06 12:28 45.83893 5.07916 2900 ft 162 kts 176°
2026-05-06 12:28 45.82814 5.08049 2697 ft 147 kts 175°
2026-05-06 12:28 45.81852 5.08169 2492 ft 132 kts 175°
2026-05-06 12:28 45.80919 5.08281 2322 ft 135 kts 175°
2026-05-06 12:29 45.79985 5.08394 2146 ft 136 kts 175°
2026-05-06 12:29 45.79064 5.08507 1952 ft 132 kts 175°
2026-05-06 12:29 45.78144 5.08620 1772 ft 133 kts 174°
2026-05-06 12:29 45.77212 5.08733 1566 ft 135 kts 175°
2026-05-06 12:30 45.76273 5.08850 1379 ft 136 kts 175°
2026-05-06 12:30 45.75330 5.08972 1192 ft 136 kts 175°
2026-05-06 12:30 45.74387 5.09087 1012 ft 136 kts 176°
2026-05-06 12:30 45.73447 5.09201 812 ft 136 kts 176°
2026-05-06 12:31 45.72570 5.09299 782 ft 100 kts 175°
2026-05-06 12:31 45.72127 5.09307 788 ft 50 kts 203°
2026-05-06 12:31 45.72002 5.09210 791 ft 1 kts 222°
2026-05-06 12:31 45.71973 5.09095 794 ft 0 kts 267°
2026-05-06 12:32 45.71973 5.09094 794 ft 1 kts 267°
2026-05-06 12:33 45.71968 5.08994 797 ft 12 kts 265°
2026-05-06 12:33 45.71959 5.08862 798 ft 15 kts 263°
2026-05-06 12:33 45.71952 5.08694 795 ft 19 kts 265°
2026-05-06 12:33 45.71938 5.08525 795 ft 15 kts 252°
2026-05-06 12:34 45.71850 5.08473 795 ft 16 kts 177°
2026-05-06 12:34 45.71736 5.08487 797 ft 17 kts 175°
2026-05-06 12:34 45.71610 5.08500 798 ft 19 kts 175°
2026-05-06 12:34 45.71485 5.08519 800 ft 12 kts 173°
2026-05-06 12:35 45.71422 5.08482 800 ft 11 kts 240°
2026-05-06 12:35 45.71404 5.08390 801 ft 5 kts 257°
2026-05-06 12:35 45.71405 5.08347 800 ft 5 kts 274°
2026-05-06 12:35 45.71409 5.08290 800 ft 7 kts 276°
2026-05-06 12:36 45.71441 5.08269 800 ft 6 kts
2026-05-06 12:36 45.71479 5.08282 800 ft 5 kts 14°
2026-05-06 12:36 45.71493 5.08287 799 ft 0 kts 14°